User: anonymous   Login
Location: Unspecified
(0.0000°N, 0.0000°E)
Time: 01:10:43
(UTC+00:00)
Language:

STSS DEMO 2 (USA 209) - Orbit

View from above orbital plane
View from above orbital plane
View from above satellite
View from above satellite

Ground track
Ground track

The orbit data is extracted from the following two-line orbital elements,

1 35938U 09052B   17256.84482166 0.00000000  00000-0  00000-0 0    07
2 35938  57.9883 144.1534 0014794  51.2203 308.7797 12.79331606    09
Epoch (UTC): 13 September 2017 20:16:32
Eccentricity: 0.0014794
inclination: 57.9883°
perigee height: 1333 km
apogee height: 1355 km
right ascension of ascending node: 144.1534°
argument of perigee: 51.2203°
revolutions per day: 12.79331606
mean anomaly at epoch: 308.7797°
orbit number at epoch: 0

The dashed part of the orbit path shows where the satellite is in the earth's shadow,  

DLR